Whitefield, NH

10:27 AM EDT on April 30, 2017 (GMT -0400)
Mount Washington Regional

Weather History for KHIE - March, 2013

Change the Weather History Date:

Sunday, March 17, 2013

  Actual Average Record
Temperature  
Mean Temperature 13 °F -  
Max Temperature 23 °F 33 °F 61 °F (2003)
Min Temperature 3 °F 12 °F -15 °F (2014)
Degree Days  
Heating Degree Days 52    
Moisture  
Dew Point 1 °F    
Average Humidity 62    
Maximum Humidity 81    
Minimum Humidity 33    
Precipitation  
Precipitation 0.00 in - - ()
Sea Level Pressure  
Sea Level Pressure 30.06 in    
Wind  
Wind Speed 3 mph (West)    
Max Wind Speed 20 mph    
Max Gust Speed 34 mph    
Visibility 10 miles    
Events      
Averages and records for this station are not official NWS values.
T = Trace of Precipitation, MM = Missing Value Source: NWS Daily Summary

Daily Weather History Graph

Daily Weather History Graph

Search for Another Location

Airport or City:

Trip Planner

Search our weather history database for the weather conditions in past years. The results will help you decide how hot, cold, wet, or windy it might be!

Date:

Astronomy

Mar. 17, 2013 Rise Set
Actual Time 6:54 AM EDT 6:55 PM EDT
Civil Twilight 6:25 AM EDT 7:24 PM EDT
Nautical Twilight 5:51 AM EDT 7:57 PM EDT
Astronomical Twilight 5:17 AM EDT 8:32 PM EDT
Moon 9:52 AM EDT (3/17) 12:12 AM EDT (3/17)
Length of Visible Light 12h 58m
Length of Day
12h 00m
Waxing Crescent, 31% of the Moon is Illuminated
Mar 17
Waxing Crescent
Mar 19
First Quarter
Mar 27
Full
Apr 3
Last Quarter
Apr 10
New

Hourly Weather History & Observations

Time (EDT) Temp. Windchill Dew Point Humidity Pressure Visibility Wind Dir Wind Speed Gust Speed Precip Events Conditions
12:52 AM 10.9 °F - 5.0 °F 77% 29.91 in 10.0 mi Calm Calm - N/A   Scattered Clouds
1:52 AM 9.0 °F - 3.9 °F 80% 29.92 in 10.0 mi Calm Calm - N/A   Overcast
2:52 AM 7.0 °F - 1.9 °F 80% 29.91 in 10.0 mi Calm Calm - N/A   Overcast
2:59 AM 6.8 °F - 1.4 °F 79% 29.85 in 10.0 mi Calm Calm - N/A   Mostly Cloudy
3:30 AM 6.8 °F - 1.4 °F 79% 29.86 in 10.0 mi Calm Calm - N/A   Overcast
3:43 AM 6.8 °F - 1.4 °F 79% 29.87 in 10.0 mi Calm Calm - N/A   Overcast
3:52 AM 6.1 °F - 1.0 °F 80% 29.94 in 10.0 mi Calm Calm - N/A   Overcast
4:52 AM 7.0 °F - 1.9 °F 80% 29.95 in 10.0 mi Calm Calm - N/A   Overcast
5:17 AM 6.8 °F - 1.4 °F 79% 29.89 in 10.0 mi Calm Calm - N/A   Scattered Clouds
5:52 AM 3.9 °F - -0.9 °F 80% 29.96 in 10.0 mi Calm Calm - N/A   Clear
6:52 AM 3.0 °F - -2.0 °F 80% 29.97 in 10.0 mi Calm Calm - N/A   Clear
7:52 AM 5.0 °F - -0.9 °F 76% 29.98 in 10.0 mi Calm Calm - N/A   Partly Cloudy
8:52 AM 12.9 °F 6.9 °F 8.1 °F 81% 30.01 in 10.0 mi WNW 3.5 mph - N/A   Overcast
9:52 AM 17.1 °F 6.6 °F 6.1 °F 62% 30.02 in 10.0 mi West 8.1 mph - N/A   Mostly Cloudy
10:52 AM 19.9 °F 6.2 °F 5.0 °F 52% 30.04 in 10.0 mi WNW 15.0 mph 21.9 mph N/A   Mostly Cloudy
11:52 AM 19.9 °F 10.1 °F 5.0 °F 52% 30.07 in 10.0 mi West 8.1 mph - N/A   Overcast
12:52 PM 19.9 °F 7.9 °F 5.0 °F 52% 30.09 in 10.0 mi West 11.5 mph 19.6 mph 0.00 in   Mostly Cloudy
1:52 PM 21.9 °F 6.9 °F 1.9 °F 42% 30.09 in 10.0 mi WNW 19.6 mph 34.5 mph 0.00 in   Overcast
2:52 PM 23.0 °F 11.7 °F 3.9 °F 44% 30.11 in 10.0 mi WNW 11.5 mph 19.6 mph N/A   Overcast
3:52 PM 21.0 °F 7.1 °F 3.0 °F 46% 30.13 in 10.0 mi NW 16.1 mph 20.7 mph N/A   Overcast
4:52 PM 21.9 °F 9.2 °F -2.0 °F 35% 30.14 in 10.0 mi WNW 13.8 mph 20.7 mph N/A   Overcast
5:52 PM 21.0 °F 9.3 °F -4.0 °F 33% 30.18 in 10.0 mi WNW 11.5 mph - N/A   Clear
6:52 PM 19.0 °F 6.8 °F -2.9 °F 38% 30.21 in 10.0 mi NW 11.5 mph - N/A   Clear
7:52 PM 17.1 °F 8.7 °F -2.9 °F 41% 30.26 in 10.0 mi WNW 5.8 mph - N/A   Clear
8:52 PM 15.1 °F 9.4 °F -2.9 °F 45% 30.29 in 10.0 mi WSW 3.5 mph - N/A   Clear
9:52 PM 15.1 °F 4.2 °F -2.9 °F 45% 30.31 in 10.0 mi West 8.1 mph - N/A   Clear
10:52 PM 12.0 °F 5.9 °F -2.9 °F 51% 30.33 in 10.0 mi SSW 3.5 mph - N/A   Clear
11:52 PM 9.0 °F 2.4 °F -2.9 °F 59% 30.34 in 10.0 mi SSW 3.5 mph - N/A   Clear